Location: Basse Occidentale du Courleau
(48.3833°N, 4.8333°W)
Time: 19:49:57
(UTC+00:00)

Helios 1B rocket - Pass Details

Date: 05 July 2020
Orbit: 574 x 584 km, 98.1° (Epoch: 06 August)

Event Time Altitude Azimuth Distance (km) Brightness Sun altitude
Rises 23:48:48 0° 29° (NNE) 2,814 6.8 -18.5°
Reaches altitude 10° 23:51:37 10° 49° (NE) 1,906 5.5 -18.6°
Maximum altitude 23:54:22 17° 91° (E) 1,492 4.4 -18.6°
Enters shadow 23:55:15 16° 107° (ESE) 1,538 4.3 -18.7°
